Temperature
21 21 21 20 21 22 23 24 24 24 24 24 24 24 23 21 21 19 17 18 18 18 17 18 18 17 17 17 17 17 17 17 17 17 17 17 17 17 17 17 17 17 17 17 17 18 18 18 18
21 21 21 21 22 23 23 24 24 24 24 24 24 24 22 21 19 18 17 18 18 17 17 17 17 17 17 17 17 17 17 17 17 17 17 17 17 17 17 17 17 17 17 17 17 17 17 17 18
21 21 21 22 23 23 23 24 24 25 25 25 24 23 21 20 19 18 18 18 17 17 17 17 17 17 17 17 17 17 17 17 17 17 17 17 17 16 16 16 16 16 16 17 17 17 17 17 17
21 22 23 23 24 24 24 24 25 25 25 25 24 22 20 19 19 18 18 18 18 17 17 17 17 17 17 17 17 17 16 16 16 16 16 16 16 16 16 16 16 16 16 16 16 17 17 17 17
22 23 23 24 24 25 25 25 25 25 25 24 23 21 19 18 18 18 18 18 18 17 17 17 17 17 17 17 16 16 16 16 16 16 16 16 16 16 16 16 16 16 16 16 16 17 16 17 17
23 24 23 24 24 25 26 25 25 25 25 24 23 21 19 18 18 18 18 18 18 17 17 17 17 17 17 17 16 16 16 16 16 16 16 16 16 16 16 16 16 16 16 16 16 16 16 17 17
23 24 24 24 24 24 25 25 25 25 24 24 23 21 19 18 18 18 18 18 18 18 17 17 17 17 17 17 16 16 16 16 16 16 16 16 16 16 16 16 16 16 16 16 16 16 16 17 17
24 24 25 25 24 24 25 25 25 24 24 23 23 22 19 19 18 18 18 18 18 18 18 17 17 17 17 17 16 16 16 16 16 16 16 16 16 16 16 16 16 16 16 16 16 16 16 16 17
24 24 24 24 24 24 25 25 24 24 24 23 22 21 20 19 19 19 18 18 18 18 18 18 17 17 17 17 17 16 16 16 16 16 16 16 16 16 16 16 16 16 16 16 16 16 16 16 16
25 23 24 25 26 25 25 25 25 24 24 23 21 20 20 19 19 19 19 19 18 18 18 18 18 17 17 17 17 16 16 16 16 16 16 16 16 16 16 16 16 16 16 16 16 16 16 16 16
26 25 25 26 25 25 25 25 25 24 23 23 22 20 20 20 20 19 19 19 19 19 19 18 18 18 17 17 17 17 16 16 16 16 16 16 16 16 16 16 16 16 16 16 16 16 16 16 16
26 25 25 25 25 25 25 25 24 24 23 23 22 21 20 20 20 20 19 19 19 19 19 18 18 18 18 17 17 17 17 17 17 16 16 16 16 16 16 16 16 16 16 16 16 16 16 16 16
25 25 25 25 25 25 25 24 24 23 23 22 22 21 21 21 20 20 20 20 19 19 18 18 18 18 18 18 17 17 17 17 17 17 16 16 16 16 16 16 16 16 16 16 16 16 16 16 16
26 25 25 25 25 25 25 24 24 23 23 22 22 21 21 21 20 20 20 20 19 19 19 18 18 18 18 18 17 17 17 17 17 17 17 17 16 16 16 16 16 16 16 16 16 16 16 16 16
25 25 25 25 25 25 25 24 24 23 23 22 22 21 21 21 20 20 20 20 20 19 19 18 18 18 18 18 17 17 17 17 17 17 17 17 17 16 16 16 16 16 16 16 16 16 16 16 16
25 24 23 25 25 25 24 22 24 23 23 22 22 22 21 21 21 20 20 20 20 19 19 18 18 18 18 17 17 17 17 17 17 17 17 17 17 16 16 16 16 16 16 16 16 16 16 16 16
25 24 24 24 25 25 24 23 24 23 23 23 22 22 21 21 21 20 20 20 20 19 19 18 18 18 17 17 17 17 17 17 16 16 16 16 16 16 16 16 16 16 16 16 16 16 16 16 15
25 25 25 25 25 25 24 24 24 24 23 23 23 22 22 21 21 21 20 20 20 19 19 18 18 18 17 17 17 17 16 16 16 16 16 16 16 16 16 16 16 16 16 16 16 16 16 16 15
26 26 25 26 26 25 24 24 24 24 24 24 23 23 22 22 21 21 20 20 19 19 19 18 18 18 17 17 17 17 16 16 16 16 16 16 16 16 16 16 16 16 16 16 16 16 15 15 15
26 25 25 26 26 25 24 24 25 25 24 24 24 23 23 22 21 20 20 20 19 19 19 19 18 18 17 17 17 17 16 16 16 16 16 16 16 16 16 16 16 16 16 16 16 15 15 15 15
26 25 25 25 25 25 25 24 24 25 25 24 24 23 23 22 21 20 20 20 19 19 19 19 18 18 17 17 17 17 16 16 16 16 16 16 16 16 16 16 16 16 16 16 15 15 15 15 15
25 26 26 25 24 24 24 23 24 25 24 24 24 23 23 22 22 21 20 20 19 19 19 19 18 18 17 17 17 17 16 16 16 16 16 16 16 16 16 16 16 16 16 15 15 15 15 15 15
25 26 26 25 24 24 24 24 24 25 24 24 24 24 23 23 22 21 20 20 19 19 19 19 18 18 17 17 17 17 16 16 16 16 16 16 16 16 16 16 16 16 16 15 15 15 15 15 15
26 25 25 25 24 22 24 24 24 24 24 25 25 24 23 23 22 21 21 20 19 19 18 18 18 18 17 17 17 16 16 16 16 16 16 16 16 16 15 15 16 16 15 15 15 15 15 15 15
25 24 23 23 22 23 26 25 25 26 26 26 25 24 24 23 22 21 20 20 19 19 18 18 18 17 17 17 17 17 16 16 16 16 16 16 16 16 16 15 16 16 15 15 15 15 15 15 15
25 24 23 22 23 24 25 25 25 27 26 26 25 24 24 23 22 21 20 20 19 19 18 18 17 17 17 17 17 17 16 16 16 16 16 16 16 16 16 16 16 15 15 15 15 15 15 15 15
25 24 25 24 24 24 25 25 25 26 26 26 25 24 23 23 22 21 20 20 19 19 18 18 17 17 17 17 17 17 16 16 16 16 16 16 16 16 16 16 16 16 16 16 16 15 15 15 15
25 25 24 23 23 23 24 24 24 24 25 25 25 24 23 23 22 21 20 20 19 18 18 18 17 17 17 17 17 17 17 16 16 16 16 16 16 16 16 16 16 16 16 16 15 15 15 15 15
24 24 24 24 24 23 23 23 26 25 25 25 25 24 23 22 22 21 20 20 19 18 18 18 17 17 17 17 17 16 16 16 16 16 16 16 16 16 16 16 16 16 16 15 15 15 15 15 15
25 24 24 23 23 24 23 23 26 26 26 25 25 24 23 22 22 21 20 20 19 18 18 18 17 17 17 17 17 16 16 16 16 16 16 16 16 16 16 16 16 16 16 15 15 15 15 15 15
Wind_Speed
9 9 6 2 2 1 4 6 8 7 7 9 10 10 12 12 8 7 2 4 7 10 12 12 12 12 12 12 11 11 11 11 11 11 10 10 10 11 10 10 10 11 11 11 10 11 10 10 9
9 6 4 2 2 1 5 7 10 9 7 6 8 11 12 11 10 7 3 4 8 11 14 13 12 12 12 12 12 11 11 10 10 10 9 9 9 9 9 9 9 10 10 10 10 10 9 9 8
10 7 3 3 2 4 5 7 8 8 6 6 8 10 8 7 8 5 4 6 10 13 14 14 13 13 12 12 11 11 11 10 10 9 9 9 9 9 8 9 9 9 10 10 10 9 9 9 8
5 3 4 0 6 7 6 6 6 7 6 7 9 9 8 8 6 7 7 9 11 12 14 13 14 13 13 12 12 11 11 10 10 9 9 9 9 9 9 9 9 9 9 9 9 9 9 8 8
4 3 2 2 7 7 7 7 6 7 7 9 12 11 8 9 10 10 8 9 10 11 13 14 14 14 14 13 12 11 11 11 10 10 9 9 10 10 10 9 10 9 9 9 9 9 7 7 7
4 3 2 3 7 7 8 7 8 8 9 9 10 11 7 8 9 8 8 7 9 10 13 13 13 14 13 12 11 11 10 10 10 10 10 10 10 9 10 10 9 9 9 9 9 8 7 7 6
4 4 1 5 6 6 8 7 7 7 9 8 7 9 8 9 7 8 8 7 7 8 10 12 12 12 13 12 11 10 10 9 9 9 9 9 9 9 9 9 9 9 8 8 8 7 6 5 5
4 4 1 3 5 6 7 6 6 7 7 6 6 7 8 9 8 8 7 6 6 6 7 7 10 11 12 12 11 10 10 9 8 8 8 8 9 9 9 9 9 8 8 7 6 6 4 4 4
4 2 3 4 4 5 6 6 6 5 7 10 11 12 12 12 10 8 6 6 5 5 5 6 6 7 9 11 11 10 9 8 7 6 7 7 7 8 8 9 9 7 6 5 5 4 4 3 2
1 2 5 5 5 6 5 5 4 5 7 10 12 13 13 10 8 7 7 7 6 5 4 5 5 6 6 7 9 8 7 8 6 6 5 5 5 7 9 9 8 7 5 4 4 4 3 3 2
2 3 5 5 5 5 5 5 4 4 6 7 10 12 11 9 7 7 7 6 6 5 4 5 5 5 5 4 5 4 5 5 5 6 5 5 6 6 7 7 6 6 5 4 4 4 4 4 3
3 4 4 4 4 3 3 5 4 7 6 8 10 11 10 8 7 7 7 7 6 6 5 4 3 5 5 5 3 3 3 3 3 4 5 4 2 2 3 3 4 5 4 2 2 2 3 4 5
3 3 3 3 2 2 4 4 4 7 7 8 10 10 8 7 7 6 6 7 7 6 5 4 3 5 6 4 1 4 3 3 4 3 5 4 3 2 2 2 3 4 4 3 1 3 5 5 5
2 3 3 3 2 1 3 3 4 6 7 8 9 8 8 6 6 6 5 6 7 6 6 3 4 4 5 4 3 3 4 4 4 2 3 6 4 2 2 2 3 4 3 4 4 5 5 4 5
2 2 3 4 4 3 2 2 4 8 7 7 7 8 8 7 5 5 5 5 6 7 8 5 4 4 5 5 4 3 3 5 3 2 3 6 5 4 3 3 3 3 5 6 6 6 4 4 5
5 5 5 5 4 4 4 3 6 9 9 8 7 7 7 6 6 6 5 4 5 7 9 6 4 5 6 5 3 2 4 4 3 4 4 6 6 6 5 3 2 4 6 5 3 4 4 4 5
6 7 5 5 6 5 5 3 7 8 9 9 8 8 8 7 7 6 6 5 5 6 8 7 5 5 6 4 3 3 4 3 4 5 6 6 6 7 6 3 3 5 4 3 4 4 4 4 4
4 5 3 4 6 5 5 5 8 10 9 9 9 9 9 9 8 7 6 6 5 4 6 7 6 5 5 2 3 3 3 3 4 4 5 6 5 6 5 2 4 5 4 4 4 4 4 3 3
7 5 3 2 3 4 6 6 8 10 10 9 8 9 10 9 9 8 7 7 6 5 5 7 7 5 5 2 2 3 2 2 3 3 4 4 4 5 4 3 3 3 3 3 4 4 3 2 3
7 6 4 2 2 4 6 7 7 10 11 10 10 9 9 9 9 9 8 8 7 6 5 6 7 5 5 2 3 3 3 2 3 2 3 3 3 3 3 3 3 3 3 4 4 3 2 1 2
7 5 5 3 2 5 7 7 7 9 10 9 8 9 9 10 11 11 9 8 8 7 5 6 7 6 6 4 2 3 3 3 2 2 2 3 4 4 3 3 3 2 2 3 3 3 2 1 1
6 4 5 4 5 5 5 4 5 8 9 9 8 8 9 10 10 11 10 9 8 7 5 5 6 6 6 6 3 4 4 3 2 3 3 2 3 3 4 4 2 3 2 3 2 3 2 2 1
5 4 5 6 7 8 8 6 4 8 9 10 10 10 9 10 10 12 11 10 8 8 5 4 5 6 5 6 4 3 3 3 2 3 4 3 2 3 4 3 2 2 2 2 2 3 2 1 1
4 5 7 7 6 7 9 7 2 6 8 8 9 10 10 10 9 11 11 10 8 8 6 5 6 5 5 5 5 4 4 4 4 3 3 3 2 2 3 2 1 2 2 2 2 3 3 1 2
6 4 3 5 5 5 4 4 2 5 6 6 7 8 9 9 10 10 11 11 10 9 7 6 6 6 5 4 4 5 4 5 4 4 3 3 3 2 2 2 2 1 2 2 2 2 2 2 2
7 7 5 3 3 3 2 3 4 8 7 5 6 6 8 8 9 11 11 10 10 10 9 7 7 6 5 4 3 4 4 3 3 4 3 2 3 3 3 3 3 2 2 3 3 2 1 2 2
7 7 8 8 10 6 3 2 7 7 6 5 6 7 7 9 9 11 11 10 10 10 9 8 8 6 5 4 3 3 5 4 3 3 3 2 3 3 4 4 3 3 3 3 3 2 2 3 3
8 7 5 5 4 5 3 3 3 7 6 5 5 6 7 8 10 11 11 10 10 9 9 8 8 7 6 5 4 3 4 4 3 2 3 3 3 3 4 4 4 4 3 3 3 3 3 4 3
8 8 6 5 6 4 3 1 4 6 5 4 5 6 7 7 9 10 10 10 10 10 9 8 8 7 6 6 4 4 4 5 4 3 2 2 3 3 4 3 4 5 4 4 4 2 2 2 3
9 9 8 5 6 6 5 0 3 5 4 4 4 6 6 7 8 9 10 10 10 10 10 9 8 8 7 6 5 5 5 5 5 4 3 2 2 3 4 4 4 4 4 5 4 3 2 2 2
Wind_Direction
269 251 241 246 264 230 55 57 65 57 56 51 52 66 69 53 52 86 101 43 76 86 90 82 80 84 84 84 87 91 92 90 90 89 90 90 91 93 90 87 85 86 84 82 81 81 79 76 73
277 266 254 243 271 51 63 65 68 63 74 79 63 67 73 64 70 91 91 69 80 83 82 80 82 86 86 86 88 90 91 92 95 96 94 94 96 97 95 91 88 87 86 84 79 78 78 75 73
268 261 253 246 13 51 67 67 77 80 71 72 75 59 55 60 70 88 105 97 87 84 83 83 83 86 89 88 89 91 90 92 99 101 97 96 99 99 99 97 92 89 89 85 80 74 74 72 69
267 263 247 231 66 64 74 81 81 83 71 64 81 74 69 53 80 103 102 96 94 95 92 89 86 89 90 89 88 89 90 92 95 97 98 99 100 98 100 99 97 95 92 88 83 76 74 72 66
253 257 267 91 80 73 70 73 68 70 70 68 82 90 82 75 91 95 88 91 96 100 101 98 94 92 93 92 89 89 90 89 90 90 96 98 99 99 98 97 98 97 92 89 87 82 76 74 66
271 253 268 87 89 81 74 66 67 73 78 74 92 100 93 99 95 94 94 94 101 107 111 110 105 103 99 95 91 89 89 89 90 91 92 94 98 101 101 99 99 95 89 86 88 85 77 70 65
283 289 354 95 96 85 77 68 63 62 64 57 78 101 113 112 113 112 106 99 100 107 117 127 127 117 109 103 100 97 95 95 97 100 102 104 105 105 105 103 103 101 98 95 93 89 82 76 68
285 302 8 83 92 90 85 82 75 70 72 63 61 102 122 128 132 122 119 114 106 108 112 117 124 127 127 119 114 112 110 110 112 116 121 121 120 117 113 110 106 105 105 105 104 102 101 95 83
279 305 34 58 74 95 100 96 87 86 87 76 71 86 115 132 135 129 126 116 105 103 112 115 117 119 123 125 130 137 136 138 143 146 157 158 151 137 127 112 114 113 115 121 126 135 146 134 119
245 38 55 47 65 101 99 91 104 110 99 99 98 103 120 134 140 135 126 122 121 120 116 115 122 121 114 113 137 148 140 151 157 141 149 138 109 111 116 125 129 131 136 142 163 180 181 194 190
65 71 63 56 55 83 102 95 87 94 93 106 119 127 133 137 138 134 132 127 121 115 105 105 111 117 118 111 113 107 113 126 118 119 123 111 112 127 133 147 153 159 163 174 172 189 198 186 135
75 67 73 76 60 62 78 93 86 78 93 106 118 131 140 146 145 146 140 130 119 112 100 93 115 112 103 96 104 124 114 114 108 116 112 111 117 126 123 128 138 144 146 152 151 165 112 102 101
120 113 93 86 87 83 87 98 98 105 110 113 122 131 140 144 140 136 135 136 129 124 116 84 64 92 103 101 128 110 94 93 101 96 105 104 99 105 105 123 115 115 123 124 86 77 73 66 62
95 120 134 135 132 146 145 148 151 134 138 138 139 141 146 143 142 140 141 138 134 135 117 101 97 98 119 128 110 88 105 104 95 95 116 109 105 105 99 95 87 88 89 97 94 87 80 71 60
152 187 178 179 183 176 192 191 177 147 154 153 153 152 151 154 154 148 143 139 140 134 120 106 94 100 88 82 79 96 94 94 83 56 87 107 105 88 86 82 94 100 92 77 81 85 81 83 76
210 221 205 191 190 177 211 222 150 152 167 167 173 159 155 161 166 158 151 143 133 127 121 116 106 92 86 80 77 89 79 75 69 47 57 85 93 87 76 73 79 89 88 88 90 88 78 72 72
217 233 213 185 191 196 217 213 159 175 184 180 185 174 168 172 169 160 156 144 127 124 127 129 117 103 97 99 92 67 78 71 68 54 46 59 75 87 84 66 81 83 79 72 87 82 91 95 93
237 242 220 200 185 211 231 224 179 187 198 193 186 180 178 178 166 156 142 125 116 115 126 126 114 114 109 101 100 84 69 68 71 63 61 48 57 85 93 89 84 82 80 72 76 85 80 93 97
292 285 264 218 170 227 246 237 203 190 198 199 190 188 182 176 161 146 140 138 137 135 137 136 137 131 122 118 117 114 101 85 78 73 68 59 53 73 83 80 83 85 96 104 102 93 91 94 110
275 281 275 252 189 256 256 247 218 194 198 201 197 188 177 171 156 150 159 158 147 151 168 146 138 136 128 132 139 131 124 109 95 76 66 67 71 76 105 104 100 91 91 90 90 94 91 103 115
259 271 286 292 283 261 263 255 220 197 197 195 199 186 176 175 166 164 166 150 148 161 173 154 140 139 135 128 97 103 92 84 93 90 67 52 65 57 69 89 104 113 106 114 110 105 97 71 39
265 274 283 279 274 272 250 272 225 192 185 190 189 186 183 180 169 163 158 152 158 161 165 151 143 139 131 127 119 126 130 139 139 135 139 115 97 80 65 77 81 112 106 122 142 116 96 95 54
282 310 280 271 268 273 259 260 236 173 181 189 188 186 185 177 169 162 157 159 159 148 144 135 125 122 120 129 126 121 130 138 125 127 130 124 105 102 87 88 76 101 109 121 105 101 87 88 111
261 273 260 250 261 261 245 237 236 174 179 179 180 184 181 175 167 159 153 152 146 139 138 131 124 123 126 135 140 151 145 136 133 133 142 140 132 124 114 117 104 93 97 95 108 116 111 79 58
239 248 251 224 220 244 218 214 189 120 127 147 165 175 170 166 161 157 153 155 151 148 147 141 135 135 146 162 167 164 158 159 153 148 146 146 136 136 152 132 103 78 99 102 95 112 132 139 112
230 233 253 275 276 290 196 210 121 108 111 128 150 156 157 161 163 158 156 158 154 153 153 155 153 152 157 174 180 161 151 141 130 134 134 142 134 142 135 116 110 103 110 120 111 110 136 124 118
234 241 260 284 295 289 224 157 111 115 124 136 146 152 161 165 161 156 155 160 159 156 157 161 156 153 160 174 184 168 144 139 142 144 133 130 142 141 127 121 118 97 81 82 95 87 75 78 70
246 264 267 264 284 279 263 218 165 147 138 137 144 153 156 161 163 160 158 162 163 157 158 162 161 165 169 172 184 159 137 135 143 145 142 141 137 132 133 140 136 121 103 81 75 78 71 91 90
223 237 247 260 265 280 292 42 84 115 118 137 147 147 153 159 163 159 158 162 159 155 158 164 167 164 163 169 170 155 143 143 143 136 153 163 157 151 148 150 140 139 137 119 98 101 104 104 118
229 238 242 247 263 266 273 185 85 102 107 111 118 127 143 149 152 154 157 159 162 163 164 169 172 168 166 169 167 162 162 164 155 158 171 168 165 157 141 130 124 119 116 111 115 112 100 89 86
Height
1500 1501 1502 1503 1504 1505 1505 1501 1496 1497 1499 1501 1501 1502 1506 1510 1515 1526 1526 1523 1523 1522 1521 1521 1520 1520 1521 1522 1522 1523 1524 1525 1526 1527 1528 1529 1530 1531 1532 1533 1534 1535 1536 1537 1538 1538 1539 1539 1540
1500 1502 1504 1503 1505 1510 1509 1501 1500 1500 1502 1502 1503 1505 1509 1515 1519 1522 1524 1524 1524 1523 1522 1522 1521 1521 1522 1523 1523 1524 1525 1526 1527 1528 1529 1530 1531 1532 1533 1534 1535 1536 1537 1537 1538 1539 1540 1540 1541
1501 1502 1504 1502 1503 1508 1509 1502 1500 1501 1502 1503 1505 1509 1513 1519 1522 1523 1525 1525 1525 1524 1523 1523 1523 1523 1523 1524 1525 1525 1526 1527 1528 1529 1530 1531 1532 1533 1534 1535 1535 1536 1537 1538 1539 1540 1540 1541 1542
1503 1504 1502 1502 1505 1502 1502 1501 1501 1502 1504 1504 1506 1513 1519 1522 1523 1525 1525 1526 1526 1525 1525 1525 1525 1524 1525 1525 1526 1527 1528 1528 1529 1530 1531 1531 1532 1533 1534 1535 1536 1537 1538 1539 1540 1540 1541 1542 1543
1504 1503 1502 1503 1503 1501 1500 1501 1502 1503 1505 1506 1509 1516 1522 1525 1525 1526 1527 1527 1527 1527 1527 1527 1527 1526 1527 1527 1528 1529 1529 1530 1531 1531 1532 1532 1533 1534 1535 1536 1537 1538 1539 1540 1540 1541 1542 1543 1544
1504 1500 1506 1508 1505 1501 1502 1503 1504 1505 1507 1509 1512 1517 1524 1527 1527 1527 1528 1529 1529 1529 1529 1529 1529 1529 1529 1530 1530 1531 1531 1531 1532 1533 1533 1534 1534 1535 1536 1537 1538 1539 1539 1540 1541 1542 1543 1544 1545
1505 1501 1504 1505 1507 1506 1505 1506 1507 1508 1510 1512 1513 1518 1525 1527 1528 1529 1529 1530 1531 1531 1531 1531 1531 1531 1532 1532 1532 1532 1533 1533 1534 1534 1535 1535 1536 1537 1538 1538 1539 1539 1540 1541 1542 1543 1544 1545 1545
1503 1502 1502 1504 1507 1508 1506 1508 1510 1511 1513 1514 1515 1518 1525 1528 1529 1529 1530 1531 1532 1533 1533 1534 1533 1533 1533 1534 1534 1534 1535 1535 1536 1536 1537 1537 1538 1539 1539 1539 1540 1541 1541 1542 1543 1544 1545 1546 1547
1503 1506 1508 1506 1507 1508 1507 1509 1511 1513 1514 1516 1518 1520 1524 1527 1529 1530 1532 1533 1534 1534 1535 1535 1535 1536 1536 1536 1536 1536 1537 1537 1537 1538 1539 1539 1540 1540 1541 1541 1542 1542 1543 1543 1544 1545 1546 1547 1548
1503 1509 1507 1504 1504 1506 1508 1510 1511 1513 1515 1518 1521 1524 1526 1528 1530 1531 1533 1534 1535 1535 1536 1537 1537 1537 1538 1538 1538 1538 1539 1539 1539 1540 1541 1542 1542 1543 1543 1543 1544 1544 1544 1545 1545 1546 1547 1548 1549
1502 1505 1505 1505 1506 1507 1508 1511 1512 1513 1517 1519 1522 1525 1527 1529 1530 1532 1533 1535 1536 1536 1537 1538 1538 1539 1539 1540 1540 1541 1541 1541 1542 1542 1543 1543 1543 1544 1544 1544 1545 1545 1546 1546 1547 1547 1548 1549 1550
1505 1505 1506 1508 1509 1509 1510 1512 1514 1515 1519 1520 1522 1525 1527 1529 1531 1532 1534 1535 1536 1537 1538 1539 1539 1540 1540 1541 1541 1542 1542 1543 1543 1543 1544 1544 1545 1545 1546 1546 1546 1547 1547 1547 1548 1549 1550 1551 1551
1506 1508 1508 1510 1511 1511 1512 1513 1515 1518 1520 1522 1524 1526 1528 1530 1531 1533 1534 1535 1537 1538 1539 1540 1540 1540 1541 1541 1542 1543 1543 1544 1544 1545 1545 1546 1546 1546 1547 1547 1548 1548 1549 1549 1549 1550 1551 1552 1553
1506 1507 1509 1510 1511 1512 1513 1514 1516 1518 1520 1522 1524 1526 1528 1530 1531 1533 1534 1535 1536 1538 1539 1540 1541 1541 1542 1542 1543 1544 1544 1545 1545 1546 1546 1547 1547 1547 1548 1548 1548 1549 1550 1550 1551 1552 1552 1553 1554
1508 1509 1509 1510 1510 1511 1513 1515 1515 1517 1520 1522 1524 1526 1528 1530 1531 1533 1534 1535 1536 1538 1539 1540 1541 1542 1542 1543 1544 1545 1545 1546 1546 1547 1547 1548 1548 1549 1549 1549 1550 1550 1551 1551 1552 1553 1554 1554 1555
1507 1510 1514 1509 1508 1510 1516 1520 1514 1517 1519 1521 1523 1525 1527 1529 1531 1532 1534 1535 1536 1538 1539 1540 1541 1542 1543 1544 1545 1545 1546 1547 1547 1547 1548 1548 1549 1550 1550 1550 1551 1552 1552 1553 1553 1554 1555 1555 1556
1508 1513 1512 1509 1506 1508 1512 1516 1513 1515 1517 1519 1521 1523 1526 1528 1530 1532 1533 1535 1536 1538 1539 1540 1541 1542 1543 1544 1545 1546 1547 1547 1548 1548 1549 1549 1550 1551 1551 1552 1552 1553 1553 1554 1555 1555 1556 1556 1557
1510 1507 1507 1508 1504 1506 1510 1511 1511 1513 1514 1516 1519 1521 1524 1526 1528 1531 1533 1534 1536 1538 1539 1540 1541 1543 1544 1545 1546 1547 1548 1548 1549 1549 1550 1550 1551 1552 1552 1553 1553 1554 1554 1555 1556 1556 1557 1558 1559
1500 1502 1505 1503 1500 1505 1508 1508 1506 1508 1511 1513 1516 1518 1521 1524 1527 1529 1532 1534 1536 1538 1539 1540 1542 1543 1544 1545 1546 1547 1548 1549 1549 1550 1551 1551 1552 1552 1553 1553 1554 1555 1555 1556 1557 1558 1558 1559 1560
1500 1503 1504 1501 1499 1503 1505 1505 1502 1504 1507 1510 1512 1515 1518 1522 1525 1528 1531 1533 1535 1537 1539 1540 1541 1543 1544 1545 1546 1548 1549 1549 1550 1551 1551 1552 1552 1553 1554 1554 1555 1556 1556 1557 1558 1559 1560 1560 1561
1501 1503 1503 1504 1501 1501 1505 1507 1501 1500 1503 1506 1509 1512 1516 1519 1523 1526 1529 1532 1534 1536 1538 1540 1541 1543 1544 1546 1547 1548 1549 1550 1551 1551 1552 1552 1553 1553 1554 1555 1556 1556 1557 1558 1559 1559 1560 1561 1562
1504 1498 1499 1503 1509 1510 1506 1517 1502 1497 1500 1503 1507 1510 1513 1517 1520 1523 1527 1530 1533 1535 1537 1539 1541 1542 1544 1545 1547 1548 1549 1550 1551 1551 1552 1553 1553 1554 1554 1555 1556 1557 1558 1559 1559 1560 1561 1561 1562
1500 1497 1499 1502 1507 1510 1505 1511 1504 1494 1500 1500 1503 1507 1510 1514 1517 1521 1525 1528 1531 1534 1537 1539 1540 1542 1543 1545 1546 1547 1549 1550 1551 1552 1552 1553 1554 1554 1555 1555 1556 1557 1558 1559 1560 1560 1561 1561 1562
1496 1499 1500 1502 1507 1518 1504 1508 1506 1494 1495 1495 1499 1503 1507 1511 1515 1519 1523 1526 1530 1533 1535 1538 1540 1541 1543 1544 1546 1547 1548 1549 1550 1551 1552 1553 1554 1554 1555 1556 1557 1558 1558 1559 1560 1560 1561 1561 1562
1498 1508 1519 1520 1521 1513 1492 1499 1500 1487 1487 1491 1496 1500 1504 1509 1513 1517 1521 1524 1528 1531 1534 1536 1539 1540 1542 1544 1545 1546 1548 1549 1550 1551 1552 1553 1554 1555 1555 1556 1557 1557 1558 1559 1560 1560 1561 1562 1562
1498 1503 1518 1525 1519 1507 1494 1499 1491 1484 1488 1491 1495 1499 1503 1507 1511 1515 1518 1522 1526 1529 1532 1535 1537 1539 1541 1543 1545 1546 1547 1548 1550 1551 1552 1553 1554 1555 1556 1556 1557 1558 1558 1559 1560 1561 1561 1562 1562
1499 1500 1496 1505 1505 1509 1500 1492 1489 1485 1488 1491 1495 1498 1502 1505 1509 1513 1517 1521 1524 1527 1531 1534 1536 1538 1540 1542 1544 1545 1546 1547 1549 1550 1552 1553 1554 1555 1555 1556 1557 1558 1558 1559 1560 1560 1561 1562 1562
1493 1495 1500 1508 1518 1519 1505 1499 1499 1492 1491 1492 1494 1498 1501 1504 1508 1512 1515 1519 1523 1526 1529 1532 1535 1537 1539 1541 1543 1544 1545 1547 1548 1550 1551 1552 1554 1555 1555 1556 1557 1558 1558 1559 1560 1560 1561 1562 1562
1496 1498 1498 1502 1504 1516 1518 1508 1484 1488 1488 1491 1493 1496 1500 1503 1507 1510 1514 1518 1521 1524 1527 1531 1533 1536 1538 1540 1541 1543 1544 1546 1547 1549 1550 1552 1553 1554 1555 1556 1557 1558 1558 1559 1559 1560 1561 1562 1562
1490 1493 1497 1509 1507 1502 1510 1508 1483 1485 1488 1490 1493 1496 1499 1502 1505 1509 1512 1516 1520 1523 1526 1529 1531 1534 1536 1538 1540 1542 1543 1545 1547 1548 1549 1551 1552 1554 1555 1556 1557 1557 1558 1559 1559 1560 1561 1561 1562